Weather History for KIMT - September, 2013

Change the Weather History Date:

Monday, September 16, 2013

  Actual Average Record
Temperature  
Mean Temperature 47 °F -  
Max Temperature 63 °F 66 °F 90 °F (1955)
Min Temperature 32 °F 43 °F 24 °F (1945)
Degree Days  
Heating Degree Days 18    
Moisture  
Dew Point 37 °F    
Average Humidity 75    
Maximum Humidity 100    
Minimum Humidity 39    
Precipitation  
Precipitation 0.00 in - - ()
Sea Level Pressure  
Sea Level Pressure 30.40 in    
Wind  
Wind Speed 2 mph (East)    
Max Wind Speed 6 mph    
Max Gust Speed -    
Visibility 10 miles    
Events      
Averages and records for this station are not official NWS values.
T = Trace of Precipitation, MM = Missing Value Source: NWS Daily Summary

Daily Weather History Graph

Daily Weather History Graph

Search for Another Location

Airport or City:

Trip Planner

Search our weather history database for the weather conditions in past years. The results will help you decide how hot, cold, wet, or windy it might be!

Date:

Astronomy

Sep. 16, 2013 Rise Set
Actual Time 6:32 AM CDT 7:01 PM CDT
Civil Twilight 6:02 AM CDT 7:31 PM CDT
Nautical Twilight 5:26 AM CDT 8:06 PM CDT
Astronomical Twilight 4:50 AM CDT 8:42 PM CDT
Moon 5:15 PM CDT (9/16) 3:10 AM CDT (9/16)
Length of Visible Light 13h 28m
Length of Day
12h 28m
Waxing Gibbous, 90% of the Moon is Illuminated
Sep 16
Waxing Gibbous
Sep 19
Full
Sep 26
Last Quarter
Oct 4
New
Oct 11
First Quarter

Hourly Weather History & Observations

Time (CDT) Temp. Windchill Dew Point Humidity Pressure Visibility Wind Dir Wind Speed Gust Speed Precip Events Conditions
12:54 AM 36.0 °F 32.1 °F 34.0 °F 93% 30.34 in - North 4.6 mph - N/A   Clear
1:54 AM 37.0 °F 34.5 °F 35.1 °F 93% 30.34 in - NNW 3.5 mph - N/A   Clear
2:54 AM 37.9 °F - 36.0 °F 93% 30.35 in - Calm Calm - N/A   Clear
3:36 AM 33.8 °F - 33.8 °F 100% 30.33 in - Calm Calm - N/A   Scattered Clouds
3:54 AM 34.0 °F - 33.1 °F 96% 30.37 in - Calm Calm - N/A   Partly Cloudy
4:54 AM 34.0 °F - 33.1 °F 96% 30.39 in - Calm Calm - N/A   Clear
5:27 AM 33.8 °F - 32.0 °F 93% 30.36 in - Calm Calm - N/A   Scattered Clouds
5:54 AM 32.0 °F - 30.9 °F 96% 30.41 in - Calm Calm - N/A   Scattered Clouds
6:15 AM 32.0 °F - 30.2 °F 93% 30.38 in - Calm Calm - N/A   Mostly Cloudy
6:54 AM 32.0 °F - 30.9 °F 96% 30.44 in - Calm Calm - N/A   Overcast
7:54 AM 39.0 °F - 37.0 °F 93% 30.44 in - Calm Calm - N/A   Overcast
8:23 AM 42.8 °F - 39.2 °F 87% 30.41 in - Calm Calm - N/A   Scattered Clouds
8:54 AM 45.0 °F 42.6 °F 41.0 °F 86% 30.45 in 10.0 mi North 4.6 mph - N/A   Clear
9:54 AM 52.0 °F - 39.0 °F 61% 30.46 in 10.0 mi ENE 5.8 mph - N/A   Clear
10:54 AM 54.0 °F - 39.0 °F 57% 30.46 in 10.0 mi ENE 5.8 mph - N/A   Partly Cloudy
11:54 AM 55.9 °F - 37.9 °F 51% 30.45 in 10.0 mi NE 4.6 mph - N/A   Partly Cloudy
12:54 PM 57.0 °F - 39.0 °F 51% 30.45 in 10.0 mi Variable 4.6 mph - N/A   Mostly Cloudy
1:54 PM 60.1 °F - 39.0 °F 46% 30.43 in - WSW 3.5 mph - N/A   Clear
2:54 PM 61.0 °F - 37.0 °F 41% 30.41 in - Calm Calm - N/A   Clear
3:54 PM 61.0 °F - 37.0 °F 41% 30.40 in 10.0 mi Calm Calm - N/A   Clear
4:54 PM 62.1 °F - 37.0 °F 39% 30.39 in 10.0 mi Calm Calm - N/A   Clear
5:54 PM 60.1 °F - 37.9 °F 44% 30.38 in 10.0 mi South 4.6 mph - N/A   Clear
6:54 PM 55.0 °F - 43.0 °F 64% 30.37 in 10.0 mi Calm Calm - N/A   Clear
7:54 PM 50.0 °F - 42.1 °F 74% 30.38 in 10.0 mi SE 5.8 mph - N/A   Clear
8:54 PM 46.9 °F - 41.0 °F 80% 30.38 in 10.0 mi SE 4.6 mph - N/A   Clear
9:54 PM 46.0 °F 44.8 °F 39.9 °F 79% 30.38 in 10.0 mi SSE 3.5 mph - N/A   Clear
10:54 PM 45.0 °F 43.5 °F 39.0 °F 80% 30.38 in 10.0 mi SE 3.5 mph - N/A   Clear
11:54 PM 43.0 °F - 39.0 °F 86% 30.38 in 10.0 mi Calm Calm - N/A   Clear